[[{"header":{"parameterUnit":"m.s-1","parameterCategory":1,"la1":30.2991,"la2":30.254,"lo1":-89.0895,"lo2":-89.0444,"dy":0.0017,"dx":0.0017,"nx":28,"ny":28,"refTime":"2025-03-05T09:00:00:Z","depth":0,"parameterNumber":2,"parameterNumberName":"U-component_of_WINDS"},"data":[0,0,0,0,0,0,0,0,0,0,0,0,0,0,0,0,0,0,0,0,0,0,0,0,0,0,0,0,0,0,0,0,0,0,0,0,0,0,0,0,0,0,0,0,0,0,0,0,0,0,0,0,0,0,0,0,0,0,8.4249,8.4251,0,8.4445,8.4447,8.4449,8.4372,8.4367,8.4363,8.4358,8.4562,8.4571,8.4581,0,0,0,0,0,0,0,0,0,0,0,0,0,8.3814,8.3823,8.4249,8.4252,8.4254,8.4444,8.4447,8.445,8.4373,8.4367,8.4362,8.4356,8.4559,8.457,8.4582,0,0,0,0,0,0,0,0,0,0,0,0,0,8.4006,8.3825,8.4249,8.4239,8.424,8.4444,8.4447,8.445,8.4374,8.4367,8.436,8.4354,8.4555,8.4569,8.4583,8.481,0,0,8.4628,8.4634,0,0,0,0,0,0,0,0,8.3995,8.4022,8.4238,8.424,8.4241,8.4377,8.4368,8.4571,8.4376,8.4323,8.4358,8.435,8.4506,8.4524,8.4576,8.482,8.4829,8.4629,8.4638,8.4644,8.4648,0,0,0,0,0,0,0,8.3982,8.4013,8.4327,8.4241,8.4243,8.4226,8.4245,8.4406,8.4451,8.4327,8.4322,8.4346,8.4506,8.4562,8.458,8.4832,8.4629,8.4642,8.465,8.4656,8.5275,8.5282,0,0,0,0,0,0,8.3968,8.4003,8.432,8.4332,8.4099,8.4239,8.4261,8.434,8.4449,8.4459,8.4352,8.4342,8.4541,8.4563,8.4587,8.4862,8.4644,8.4658,8.4666,8.5267,8.5277,8.5285,0,0,0,0,0,0,8.3959,8.3997,8.4312,8.4166,8.4205,8.4254,8.4344,8.4348,8.4404,8.4467,8.4475,8.4401,8.4536,8.4567,8.4756,8.4868,8.4664,8.4677,8.5258,8.527,8.5281,8.5413,0,0,0,0,0,0,8.3946,8.3994,8.4079,8.4169,8.4213,8.4477,8.435,8.4357,8.4429,8.4418,8.4516,8.4525,8.4533,8.4735,8.477,8.4884,8.4689,8.5248,8.5264,8.5277,8.5399,8.5428,8.5452,0,0,0,0,0,8.3931,8.4109,8.4084,8.4123,8.4321,8.4483,8.4509,8.4514,8.4438,8.4526,8.4567,8.4522,8.485,8.4755,8.4794,8.4914,8.5241,8.5259,8.5276,8.5387,8.5422,8.5452,0,0,0,0,0,0,8.4032,8.412,8.4094,8.4305,8.4387,8.447,8.458,8.455,8.4656,8.4642,8.4644,8.4667,8.4863,8.4907,8.48,8.5142,8.5035,8.5061,8.5105,8.5139,8.5165,8.5151,8.4701,0,0,0,0,0,8.4078,8.4202,8.4273,8.4453,8.4495,8.4531,8.4602,8.4599,8.4684,8.4719,8.4774,8.486,8.4982,8.5063,8.5179,8.5405,8.5427,8.5507,8.5534,8.5556,8.5579,8.5705,8.5742,8.5342,8.5342,8.5342,0,0,8.4176,8.424,8.4317,8.4474,8.4538,8.4668,8.4561,8.4701,8.4799,8.4741,8.4923,8.4967,8.5063,8.5272,8.5367,8.5316,8.5694,8.5578,8.5595,8.5606,8.5726,8.5764,8.5798,8.5354,8.5352,8.535,0,0,8.4421,8.448,8.4638,8.4704,8.4801,8.4824,8.4862,8.4951,8.4977,8.516,8.512,8.5236,8.5447,8.5518,8.5582,8.5857,8.5821,8.5895,8.6035,8.6157,8.6189,8.6217,8.6317,8.6353,8.5917,8.5917,8.5918,0,8.453,8.4723,8.4723,8.4868,8.494,8.4893,8.5054,8.5119,8.525,8.5301,8.5241,8.5506,8.5567,8.5794,8.5861,8.5914,8.5959,8.5884,8.6184,8.6212,8.6238,8.6334,8.6372,8.5926,8.5925,8.5924,8.5923,0,8.4854,8.4989,8.5105,8.5232,8.5316,8.5469,8.5494,8.558,8.557,8.5601,8.5789,8.5862,8.5993,8.6046,8.6038,8.6273,8.6239,8.6182,8.6074,8.6285,8.6375,8.6412,8.5938,8.5935,8.5932,8.593,0,0,8.5167,8.5294,8.5337,8.5395,8.55,8.5605,8.5757,8.5885,8.596,8.6052,8.6181,8.6361,8.631,8.6383,8.6382,8.649,8.6706,8.642,8.6422,8.6472,8.6974,8.7017,8.7059,8.6683,8.669,8.6695,8.6966,0,8.5422,8.5687,8.5693,8.5936,8.6062,8.6021,8.6153,8.6233,8.6266,8.6379,8.6416,8.6545,8.6466,8.651,8.6614,8.6658,8.6807,8.6638,8.6805,8.6811,8.6784,8.7106,8.7152,8.7404,8.7001,8.7007,8.7012,0,8.5754,8.5857,8.6114,8.6203,8.6256,8.6375,8.6494,8.6602,8.6693,8.6709,8.6792,8.6776,8.6933,8.6821,8.7039,8.6924,8.6993,8.7025,8.7035,8.7052,8.6925,8.7134,8.7484,8.7523,8.7067,8.7062,8.7058,0,8.596,8.6163,8.6343,8.6394,8.6502,8.6587,8.6636,8.672,8.6798,8.6902,8.6953,8.7075,8.7143,8.7238,8.7257,8.7173,8.7477,8.7365,8.7497,8.7497,8.7564,8.756,8.7933,8.7606,8.7606,8.7605,8.7604,0,8.6244,8.6404,8.6437,8.6548,8.6726,8.6732,8.6909,8.6952,8.7027,8.7148,8.7119,8.7233,8.725,8.7369,8.7384,8.7565,8.7595,8.7614,8.7617,8.7618,8.7616,8.7664,8.7648,8.7615,8.7613,8.7611,8.7609,0,8.6504,8.6533,8.6727,8.6814,8.684,8.6967,8.7042,8.715,8.718,8.7333,8.7369,8.7418,8.7556,8.7584,8.7748,8.7758,8.7974,8.7958,8.7943,8.7942,8.8074,8.8062,8.8492,8.855,8.8183,8.8187,8.819,0,8.6685,8.6807,8.6907,8.6985,8.7038,8.7165,8.7244,8.7255,8.7339,8.7454,8.7548,8.7684,8.7793,8.8017,8.8067,8.8193,8.8182,8.8324,8.8201,8.8199,8.8187,8.818,8.8193,8.8348,8.8352,8.8355,8.8358,0,8.7004,8.7012,8.7126,8.7248,8.7343,8.7438,8.7529,8.7595,8.762,8.7716,8.7857,8.7942,8.8109,8.8245,8.8372,8.8424,8.8397,8.8396,8.8434,8.8437,8.8424,8.8435,8.801,8.8386,8.8383,8.8381,8.838,8.8379,8.7231,8.7338,8.7426,8.7556,8.7625,8.7711,8.7817,8.7861,8.7979,8.8116,8.8116,8.8271,8.8362,8.8529,8.8589,8.8712,8.8668,8.8722,8.8736,8.875,8.8763,8.8403,8.8735,8.8734,8.8734,8.8733,8.8732,0,8.755,8.7605,8.7724,8.7852,8.7955,8.7918,8.8018,8.8107,8.8243,8.8329,8.8437,8.8601,8.8734,8.8795,8.8926,8.9013,8.9004,8.9048,8.9042,8.9055,8.8794,8.8749,8.9053,8.9053,8.9053,8.9053,8.9053,8.9053,8.7729,8.7909,8.7928,8.8144,8.8197,8.8348,8.8409,8.8489,8.8558,8.8742,8.8852,8.8891,8.8968,8.9105,8.9226,8.9241,8.9291,8.9342,8.9351,8.9106,8.9073,8.9042,8.9,8.9352,8.9352,8.9602,8.9604,8.9606]},{"header":{"parameterUnit":"m.s-1","parameterCategory":1,"la1":30.2991,"la2":30.254,"lo1":-89.0895,"lo2":-89.0444,"dy":0.0017,"dx":0.0017,"nx":28,"ny":28,"refTime":"2025-03-05T09:00:00:Z","depth":0,"parameterNumber":3,"parameterNumberName":"V-component_of_WINDS"},"data":[0,0,0,0,0,0,0,0,0,0,0,0,0,0,0,0,0,0,0,0,0,0,0,0,0,0,0,0,0,0,0,0,0,0,0,0,0,0,0,0,0,0,0,0,0,0,0,0,0,0,0,0,0,0,0,0,0,0,-3.8504,-3.8505,0,-3.8598,-3.8599,-3.86,-3.8607,-3.8606,-3.8605,-3.8604,-3.8699,-3.8702,-3.8706,0,0,0,0,0,0,0,0,0,0,0,0,0,-3.8331,-3.8334,-3.8504,-3.8505,-3.8506,-3.8597,-3.8599,-3.86,-3.8607,-3.8606,-3.8605,-3.8604,-3.8698,-3.8702,-3.8706,0,0,0,0,0,0,0,0,0,0,0,0,0,-3.8414,-3.8335,-3.8504,-3.8521,-3.8523,-3.8597,-3.8599,-3.86,-3.8608,-3.8606,-3.8605,-3.8603,-3.8696,-3.8701,-3.8706,-3.8769,0,0,-3.8722,-3.8725,0,0,0,0,0,0,0,0,-3.8409,-3.842,-3.8517,-3.852,-3.8523,-3.8589,-3.8573,-3.8657,-3.8608,-3.8576,-3.8604,-3.8602,-3.8663,-3.8671,-3.8692,-3.8774,-3.8778,-3.8723,-3.8726,-3.8728,-3.873,0,0,0,0,0,0,0,-3.8403,-3.8416,-3.8541,-3.8519,-3.8522,-3.8524,-3.8534,-3.8589,-3.8627,-3.8578,-3.8579,-3.859,-3.8665,-3.8687,-3.8694,-3.8779,-3.8723,-3.8727,-3.873,-3.8733,-3.8918,-3.8919,0,0,0,0,0,0,-3.8394,-3.8411,-3.8538,-3.8544,-3.8461,-3.8528,-3.8539,-3.8569,-3.8626,-3.8634,-3.8591,-3.859,-3.8679,-3.8688,-3.8698,-3.8775,-3.8728,-3.8733,-3.8736,-3.8916,-3.8918,-3.892,0,0,0,0,0,0,-3.839,-3.8405,-3.8534,-3.8478,-3.8494,-3.8533,-3.8566,-3.8572,-3.8594,-3.8636,-3.8643,-3.8607,-3.8678,-3.869,-3.8752,-3.8779,-3.8735,-3.874,-3.8914,-3.8916,-3.8919,-3.893,0,0,0,0,0,0,-3.8385,-3.8404,-3.8428,-3.8478,-3.8497,-3.8587,-3.8568,-3.8575,-3.8604,-3.8603,-3.8653,-3.866,-3.8678,-3.8744,-3.8757,-3.8785,-3.8744,-3.8911,-3.8915,-3.8918,-3.8928,-3.8933,-3.8938,0,0,0,0,0,-3.8379,-3.8427,-3.8429,-3.8445,-3.8528,-3.8588,-3.8599,-3.8619,-3.8606,-3.863,-3.8657,-3.8658,-3.8774,-3.875,-3.8765,-3.8795,-3.891,-3.8914,-3.8918,-3.8926,-3.8932,-3.8938,0,0,0,0,0,0,-3.8379,-3.8434,-3.8437,-3.8503,-3.8541,-3.8589,-3.8621,-3.8625,-3.8668,-3.8665,-3.8688,-3.87,-3.876,-3.8784,-3.8756,-3.8859,-3.884,-3.8847,-3.8841,-3.8848,-3.8853,-3.8845,-3.8748,0,0,0,0,0,-3.8386,-3.8431,-3.8476,-3.853,-3.8549,-3.8582,-3.8608,-3.8621,-3.8661,-3.8677,-3.8709,-3.8747,-3.8792,-3.8822,-3.8865,-3.8932,-3.8943,-3.896,-3.8965,-3.8969,-3.8974,-3.9012,-3.902,-3.8933,-3.8933,-3.8933,0,0,-3.8402,-3.8438,-3.8464,-3.8531,-3.8562,-3.8607,-3.8595,-3.8643,-3.8677,-3.8684,-3.8744,-3.8769,-3.8814,-3.8878,-3.8908,-3.8899,-3.9001,-3.8974,-3.8977,-3.898,-3.9017,-3.9025,-3.9032,-3.8936,-3.8935,-3.8935,0,0,-3.8454,-3.8486,-3.8534,-3.8566,-3.8613,-3.8635,-3.8646,-3.8695,-3.8712,-3.8772,-3.8779,-3.882,-3.8897,-3.8929,-3.8955,-3.9021,-3.9023,-3.9034,-3.906,-3.9096,-3.9103,-3.9109,-3.9133,-3.9141,-3.904,-3.904,-3.904,0,-3.8468,-3.8536,-3.8558,-3.8607,-3.8636,-3.8646,-3.8695,-3.8724,-3.8783,-3.8803,-3.8793,-3.8891,-3.8922,-3.8994,-3.901,-3.9031,-3.9045,-3.9028,-3.91,-3.9107,-3.9113,-3.9136,-3.9144,-3.9041,-3.9041,-3.9041,-3.9041,0,-3.8551,-3.8598,-3.8632,-3.8689,-3.8722,-3.8771,-3.88,-3.8831,-3.8841,-3.8864,-3.8926,-3.8964,-3.9015,-3.9034,-3.9044,-3.9108,-3.9101,-3.9096,-3.9077,-3.9122,-3.9144,-3.9152,-3.9043,-3.9042,-3.9042,-3.9042,0,0,-3.8604,-3.8674,-3.8686,-3.8712,-3.8766,-3.8803,-3.8852,-3.8904,-3.893,-3.8971,-3.9013,-3.9079,-3.9074,-3.9104,-3.9118,-3.915,-3.92,-3.9141,-3.9142,-3.915,-3.9273,-3.9276,-3.9286,-3.9202,-3.9204,-3.9206,-3.9269,0,-3.8662,-3.875,-3.8771,-3.8847,-3.8891,-3.8902,-3.8945,-3.8982,-3.9005,-3.9046,-3.9072,-3.9118,-3.9109,-3.9127,-3.9159,-3.9187,-3.9225,-3.9183,-3.9241,-3.9243,-3.9229,-3.9297,-3.9301,-3.9359,-3.9278,-3.9279,-3.928,0,-3.874,-3.8784,-3.8864,-3.8912,-3.8932,-3.897,-3.9019,-3.9059,-3.9102,-3.9116,-3.9151,-3.9162,-3.9214,-3.9193,-3.9265,-3.9236,-3.9262,-3.9279,-3.9282,-3.9288,-3.9264,-3.9304,-3.9378,-3.9387,-3.9294,-3.9293,-3.9292,0,-3.8771,-3.8849,-3.8907,-3.893,-3.8988,-3.9015,-3.904,-3.9082,-3.9112,-3.9155,-3.9175,-3.9224,-3.925,-3.9288,-3.9312,-3.9295,-3.9382,-3.9363,-3.9395,-3.9395,-3.9412,-3.9411,-3.949,-3.9429,-3.9429,-3.9429,-3.9429,0,-3.8833,-3.8881,-3.8922,-3.8957,-3.9012,-3.9037,-3.9091,-3.9116,-3.9154,-3.9195,-3.9207,-3.9245,-3.9275,-3.9317,-3.9336,-3.9393,-3.9405,-3.9418,-3.9423,-3.9417,-3.9415,-3.9433,-3.943,-3.9431,-3.9431,-3.943,-3.943,0,-3.8876,-3.8905,-3.8969,-3.9019,-3.9033,-3.9071,-3.9115,-3.915,-3.9174,-3.9225,-3.9239,-3.9276,-3.9327,-3.9355,-3.9418,-3.9431,-3.9495,-3.9497,-3.948,-3.9482,-3.9512,-3.9509,-3.9606,-3.962,-3.955,-3.955,-3.9551,0,-3.8913,-3.895,-3.9005,-3.9034,-3.906,-3.9106,-3.9137,-3.9163,-3.9195,-3.9248,-3.9276,-3.9328,-3.937,-3.9451,-3.9483,-3.9532,-3.9536,-3.9566,-3.9543,-3.9536,-3.9536,-3.9533,-3.9537,-3.957,-3.9571,-3.9571,-3.9572,0,-3.8976,-3.8989,-3.9033,-3.9083,-3.9119,-3.916,-3.9199,-3.9222,-3.9255,-3.929,-3.9342,-3.9375,-3.9441,-3.9492,-3.9543,-3.9569,-3.9576,-3.9579,-3.9589,-3.9583,-3.9571,-3.9578,-3.9491,-3.9576,-3.9576,-3.9576,-3.9575,-3.9575,-3.9017,-3.9051,-3.9096,-3.9144,-3.9178,-3.9215,-3.925,-3.9279,-3.9323,-3.9379,-3.9392,-3.9447,-3.949,-3.956,-3.9588,-3.9632,-3.9626,-3.964,-3.9644,-3.9647,-3.9648,-3.9565,-3.9641,-3.9641,-3.9641,-3.9641,-3.9641,0,-3.9081,-3.911,-3.9155,-3.9211,-3.9249,-3.9253,-3.9298,-3.933,-3.9378,-3.9418,-3.946,-3.9521,-3.9571,-3.9608,-3.9659,-3.9687,-3.9691,-3.9699,-3.9697,-3.9703,-3.965,-3.9636,-3.9695,-3.9695,-3.9695,-3.9695,-3.9695,-3.9695,-3.9118,-3.9176,-3.9195,-3.927,-3.9299,-3.9353,-3.9378,-3.9413,-3.9445,-3.9512,-3.9554,-3.9578,-3.9617,-3.9671,-3.9717,-3.9727,-3.9745,-3.9753,-3.9763,-3.9712,-3.9707,-3.9701,-3.9688,-3.9756,-3.9756,-3.9812,-3.9812,-3.9813]}]]